Regional Weather Roundup
Issued by NWS Green Bay, WI

Home | Current Version | Previous Version | Text Only | Print | Product List | Glossary On
Versions: 1 2 3 4 5 6 7 8 9 10 11 12 13 14 15 16 17 18 19 20 21 22 23 24 25 26 27 28 29 30 31 32 33 34 35 36 37 38 39 40 41 42 43 44 45 46 47 48 49 50
000
ASUS43 KGRB 141511
RWRGRB

NORTH-CENTRAL AND NORTHEAST WISCONSIN REGIONAL WEATHER ROUNDUP
NATIONAL WEATHER SERVICE GREEN BAY WI
900 AM CST SUN FEB 14 2016

WIZ005-009-010>012-018-019-141600-
NORTH CENTRAL WISCONSIN

CITY           SKY/WX    TMP DP  RH WIND       PRES   REMARKS
IRONWOOD       CLOUDY     3 -15  43 E9        30.09F WCI -11
MANITOWISH WTR CLOUDY     0 -12  57 SE12      30.11F WCI -17
ARBOR VITAE    CLOUDY     1  -9  61 SE7       30.11F WCI -11
EAGLE RIVER    CLOUDY    -1  -9  68 CALM      30.13F
LAND O LAKES   CLOUDY     2  -6  71 S5        30.13F WCI  -8
RHINELANDER    CLOUDY    -7 -13  75 E6        30.13F WCI -20
PHILLIPS       CLOUDY     0 -11  58 SE9       30.10F WCI -15
ANTIGO         CLOUDY     0 -10  64 SE8       30.17F WCI -15
TOMAHAWK       CLOUDY    -2  -9  71 SE3       30.15F
MERRILL        NOT AVBL
$$

WIZ013-073-141600-
NORTHEAST WISCONSIN

CITY           SKY/WX    TMP DP  RH WIND       PRES   REMARKS
IRON MOUNTAIN  CLOUDY   -10 -15  78 CALM      30.22F
MARINETTE      CLOUDY     0  -6  78 CALM      30.30F
OCONTO         CLOUDY    -3 -10  74 CALM      30.30F
$$

WIZ017-030-035>037-045-141600-
CENTRAL WISCONSIN

CITY           SKY/WX    TMP DP  RH WIND       PRES   REMARKS
MEDFORD        CLOUDY     1 -11  56 SE10G16   30.12F WCI -14
WAUSAU         CLOUDY    -1  -9  68 E9        30.17F WCI -16
MOSINEE        SUNNY      1  -6  71 E8        30.18F WCI -12
MARSHFIELD     CLOUDY     4  -9  55 SE10      30.14F WCI -11
WISC RAPIDS    SUNNY      6  -8  52 SE8       30.20F WCI  -7
STEVENS POINT  CLOUDY     2 -10  56 SE8       30.20F WCI -11
WAUPACA        CLOUDY    -3 -10  72 CALM      30.25F
SHAWANO        CLOUDY    -5 -11  75 CALM      30.27F
CLINTONVILLE   CLOUDY    -4  -9  77 CALM      30.25F
WAUTOMA        CLOUDY     3  -9  57 E3        30.24F
$$

WIZ038-039-048-051-141600-
FOX VALLEY

CITY           SKY/WX    TMP DP  RH WIND       PRES   REMARKS
NWS GREEN BAY  CLOUDY     2  -5  72 NE5       30.28F WCI  -8
APPLETON       MOSUNNY    7  -6  56 CALM      30.23F
OSHKOSH        CLOUDY     5  -5  63 CALM      30.24F
FOND DU LAC    FLURRIES  10  -1  61 S8        30.24F WCI  -2
$$

WIZ022-050-052-141600-
EAST CENTRAL WISCONSIN

CITY           SKY/WX    TMP DP  RH WIND       PRES   REMARKS
EPHRAIM        FAIR      10  -4  52 W5        30.29F WCI   2
STURGEON BAY   CLOUDY     7  -6  56 CALM      30.31F
MANITOWOC      FLURRIES   8   1  73 CALM      30.29F
SHEBOYGAN      LGT SNOW   9   3  77 CALM      30.28F
$$

LMZ563-521-522-541>543-141600-
LAKESHORE

STATION/POSITION TIME  TEMP    WIND        PRES    VSBY  WAVE
                       AIR SEA DIR/SP/G                  HT/PER
                 (UTC) (F)     (DEG/KT/KT) (MB)    (MI)  (FT/S)
SHEBOYGAN LKSHOR 1500   13     220/  5/  7 1027.3F
KEWAUNEE LKSHORE 1400   -3     290/  5/  7 1026.1F
ALGOMA MARINA    1426           CALM  /  1   N/A
CHAMBERS ISLAND  1400    7     190/  2/  3 1027.1F
MENOMINEE LKSHOR 1400   -1     300/  1     1026.4F
$$



USA.gov is the U.S. government's official web portal to all federal, state and local government web resources and services.